CAPE
0 0 0 0 0 0 0 0 0 0 2 0 0 4 1 207 1 0 468 373 181 399 700 418 141 70 0 0 0 0 0 0 0 0 0 0 0 0 0 0 2 79 125 22 0 0 0 0 0
0 0 0 0 0 0 0 0 0 0 145 77 31 56 118 20 172 815 687 720 181 451 708 532 317 175 77 0 0 0 0 0 0 0 0 0 0 5 20 0 3 5 0 0 0 0 0 0 0
0 0 0 0 0 0 0 0 0 0 231 270 222 300 241 159 899 718 864 648 344 416 687 626 511 284 245 128 15 0 0 0 0 0 0 1 18 116 226 113 42 1 0 0 0 0 0 0 0
0 0 0 0 0 0 0 0 0 0 0 102 70 265 221 442 817 1067 951 369 204 314 568 757 621 514 423 378 139 44 0 0 0 0 0 1 42 188 308 157 22 0 0 0 0 0 0 0 0
0 0 0 0 0 0 0 0 0 0 0 264 331 253 127 359 920 1025 820 305 76 350 658 903 790 772 606 536 357 164 27 0 0 1 26 53 81 167 109 16 0 0 0 0 0 0 0 0 0
0 0 0 0 0 0 0 0 0 0 0 1 153 134 86 951 996 1134 726 376 415 367 783 1029 898 733 714 665 513 336 176 20 4 28 84 84 46 32 21 7 0 0 0 0 0 0 0 0 0
0 0 0 0 0 0 0 0 0 0 0 0 166 336 378 812 1036 949 535 669 598 603 660 845 990 890 907 803 624 482 298 84 58 86 133 75 18 0 8 8 0 0 0 0 0 0 0 0 0
0 0 0 0 0 0 0 0 0 0 0 518 953 594 350 622 634 794 692 628 623 661 602 676 763 1037 1034 978 757 625 433 206 97 109 182 112 41 0 0 0 0 0 0 0 0 0 0 0 0
0 0 0 0 0 0 0 0 0 0 0 219 791 629 420 412 929 1094 963 812 678 446 290 372 461 634 809 906 944 788 584 409 264 260 326 187 40 0 0 0 0 0 0 0 0 0 0 0 0
0 0 0 0 0 0 0 0 0 0 0 0 681 318 298 510 1055 695 782 747 504 225 135 182 157 185 392 818 958 873 822 740 539 459 451 168 4 0 0 0 0 0 0 0 0 0 0 0 0
0 0 0 0 0 0 0 0 0 0 0 0 47 425 246 289 219 269 409 423 442 503 240 145 89 107 136 328 572 653 688 608 529 468 358 99 0 0 0 0 0 0 0 0 0 0 0 0 0
0 0 0 0 0 0 0 0 0 0 0 0 0 69 241 187 170 120 165 244 213 534 397 201 62 78 83 189 110 134 202 290 204 181 96 0 0 0 0 0 0 0 0 2 0 0 0 0 0
0 0 0 0 0 0 0 0 0 0 0 0 0 0 75 140 70 24 18 87 149 169 338 294 144 65 71 217 20 0 0 0 0 0 0 0 0 0 0 0 0 0 7 8 10 3 0 0 0
0 0 0 0 0 0 0 0 0 0 0 0 0 0 0 0 12 92 52 100 70 105 131 332 154 31 181 176 117 2 0 0 0 0 0 0 0 0 0 0 0 22 23 4 17 34 23 5 5
0 0 0 0 0 0 0 0 0 0 0 0 0 0 0 0 0 15 181 188 188 278 320 245 218 6 3 553 349 84 35 31 29 16 0 0 0 0 0 0 0 33 33 47 134 128 111 125 132
0 0 0 0 0 0 0 0 0 0 0 0 0 0 0 0 0 2 154 374 429 204 8 0 128 20 0 202 1032 712 317 240 199 185 141 79 71 72 30 0 0 160 222 319 518 630 754 487 811
0 0 0 0 0 0 0 0 0 0 0 0 0 0 0 0 0 2 280 353 420 281 75 0 0 0 0 1 590 1880 1755 1345 543 550 488 343 249 174 250 217 288 1064 989 1121 1126 1068 807 771 685
0 0 0 0 0 0 0 0 0 0 0 0 0 0 0 0 0 63 261 313 338 150 133 9 0 0 0 18 595 1861 1728 1720 1631 1582 1287 1079 695 453 424 623 780 967 952 1080 987 1085 876 908 821
0 0 0 0 0 0 0 0 0 0 0 0 0 0 0 0 0 0 6 52 167 89 53 9 0 0 0 0 1695 2111 2018 1730 1640 1750 1673 1772 1647 1242 1107 874 1049 921 927 693 705 821 821 848 560
0 0 0 0 0 0 0 0 0 0 0 0 0 0 0 0 0 0 0 0 0 15 17 7 0 0 15 79 921 2453 2304 2178 2055 1765 1712 1713 1771 1830 1640 1268 1060 922 738 748 791 722 587 710 473
0 0 0 0 0 0 0 0 0 0 0 0 0 0 0 0 0 0 0 0 0 0 24 22 27 56 79 739 1698 2194 2161 1995 1750 1518 1512 1611 1602 1511 1106 929 956 630 507 384 573 456 456 555 525
0 0 0 0 30 0 6 0 0 0 0 0 0 0 0 0 0 0 0 48 79 213 288 360 467 606 685 607 157 998 1270 1268 1174 973 1154 1415 1252 946 872 777 441 186 150 240 671 249 186 323 487
0 0 0 0 0 0 0 16 0 0 0 0 0 0 0 0 0 0 111 206 317 328 245 172 140 199 303 368 481 569 802 675 75 163 718 840 655 259 269 237 189 56 216 641 631 428 326 405 655
0 0 0 0 0 0 0 1 0 0 0 0 0 0 0 0 0 153 311 185 112 59 70 59 50 29 29 34 45 122 153 42 25 10 58 41 45 150 185 33 0 279 664 743 640 438 374 446 409
0 0 0 1 0 0 0 0 0 0 0 0 0 0 0 0 6 43 52 5 0 0 0 0 0 0 0 0 0 0 0 0 0 0 0 0 0 0 6 115 183 336 492 414 276 204 223 228 194
0 0 0 0 0 0 0 0 0 0 0 0 0 0 0 0 0 0 0 0 0 0 0 0 0 0 0 0 0 0 0 0 0 0 0 0 0 0 0 0 0 0 4 80 77 115 104 139 170
0 0 0 1 1 1 13 61 0 0 0 0 0 0 0 8 3 0 0 0 0 0 0 0 0 0 0 0 0 0 0 0 0 0 0 0 0 0 0 0 0 0 0 0 0 3 94 104 92
0 0 4 0 0 0 2 0 0 1 7 0 0 3 14 9 0 0 0 0 0 0 0 0 0 0 0 0 0 0 0 0 0 0 0 0 0 0 0 0 0 0 0 0 0 0 0 2 25
0 0 0 0 0 0 0 0 41 16 9 0 0 1 0 0 0 0 0 0 0 0 0 0 0 0 0 0 0 0 0 0 0 0 0 0 0 0 0 0 0 0 0 0 0 0 0 0 0
0 1 1 17 14 0 4 0 7 0 19 0 0 0 0 0 0 0 0 0 0 0 0 0 0 0 0 0 0 0 0 0 0 0 0 0 0 0 0 0 0 0 0 0 0 0 0 0 0
CIN
-0 -0 -0 -0 -0 -0 -0 -0 -0 -0 -5 -1 -0 -67 -10 -61 -7 -0 -373 -468 -534 -466 -439 -459 -503 -524 -0 -0 -0 -0 -0 -0 -0 -0 -0 -0 -0 -0 -0 -0 -264 -420 -344 -414 -0 -0 -0 -0 -0
-0 -0 -0 -0 -0 -0 -0 -0 -0 -0 -53 -34 -59 -141 -103 -59 -190 -358 -439 -516 -598 -512 -491 -474 -481 -494 -542 -0 -0 -0 -0 -0 -0 -0 -0 -0 -0 -535 -576 -283 -446 -585 -0 -0 -0 -0 -0 -0 -0
-0 -0 -0 -0 -0 -0 -0 -0 -0 -0 -49 -47 -25 -124 -125 -92 -279 -311 -426 -578 -634 -528 -530 -500 -480 -501 -516 -563 -473 -0 -0 -0 -0 -0 -0 -304 -627 -462 -368 -410 -469 -119 -0 -0 -0 -0 -0 -0 -0
-0 -0 -0 -0 -0 -0 -0 -0 -0 -0 -0 -25 -41 -77 -194 -246 -232 -348 -539 -668 -678 -582 -552 -507 -501 -484 -495 -508 -584 -646 -0 -0 -0 -0 -0 -114 -518 -400 -335 -389 -503 -0 -0 -0 -0 -0 -0 -0 -0
-0 -0 -0 -0 -0 -0 -0 -0 -0 -0 -0 -18 -53 -46 -117 -248 -323 -372 -525 -657 -690 -621 -525 -459 -475 -460 -438 -435 -476 -517 -674 -0 -0 -97 -537 -502 -481 -409 -432 -517 -0 -0 -0 -0 -0 -0 -0 -0 -0
-0 -0 -0 -0 -0 -0 -0 -0 -0 -0 -0 -10 -36 -68 -137 -335 -360 -429 -497 -582 -571 -586 -503 -453 -440 -445 -420 -397 -411 -435 -497 -610 -303 -557 -510 -488 -492 -502 -513 -373 -0 -0 -0 -0 -0 -0 -0 -0 -0
-0 -0 -0 -0 -0 -0 -0 -0 -0 -0 -0 -0 -63 -69 -205 -290 -341 -370 -465 -479 -524 -533 -522 -493 -411 -387 -368 -369 -400 -397 -430 -500 -512 -493 -467 -467 -514 -0 -499 -496 -0 -0 -0 -0 -0 -0 -0 -0 -0
-0 -0 -0 -0 -0 -0 -0 -0 -0 -0 -0 -47 -70 -60 -140 -346 -345 -340 -367 -414 -436 -448 -458 -435 -431 -351 -337 -329 -344 -349 -389 -437 -482 -461 -420 -453 -478 -0 -0 -0 -0 -0 -0 -0 -0 -0 -0 -0 -0
-0 -0 -0 -0 -0 -0 -0 -0 -0 -0 -0 -175 -212 -160 -268 -354 -310 -322 -310 -296 -324 -386 -430 -436 -424 -385 -333 -312 -301 -311 -333 -370 -399 -406 -364 -409 -484 -0 -0 -0 -0 -0 -0 -0 -0 -0 -0 -0 -0
-0 -0 -0 -0 -0 -0 -0 -0 -0 -0 -0 -0 -121 -217 -253 -228 -183 -284 -274 -212 -262 -364 -458 -524 -551 -531 -465 -339 -289 -280 -272 -272 -308 -315 -311 -399 -278 -0 -0 -0 -0 -0 -0 -0 -0 -0 -0 -0 -0
-0 -0 -0 -0 -0 -0 -0 -0 -0 -0 -0 -0 -22 -96 -135 -98 -182 -216 -318 -374 -337 -263 -351 -419 -512 -529 -514 -456 -399 -363 -333 -304 -314 -330 -346 -415 -0 -0 -0 -0 -0 -0 -0 -0 -0 -0 -0 -0 -0
-0 -0 -0 -0 -0 -0 -0 -0 -0 -0 -0 -0 -0 -29 -102 -69 -114 -176 -280 -338 -398 -248 -237 -289 -370 -477 -549 -473 -518 -509 -448 -388 -383 -395 -431 -0 -0 -0 -0 -0 -0 -0 -0 -100 -16 -0 -0 -0 -0
-0 -0 -0 -0 -0 -0 -0 -0 -0 -0 -0 -0 -0 -0 -85 -91 -106 -251 -322 -332 -352 -386 -307 -247 -238 -274 -401 -392 -425 -0 -0 -0 -0 -0 -0 -0 -0 -0 -0 -0 -0 -0 -291 -279 -290 -144 -0 -0 -0
-0 -0 -0 -0 -0 -0 -0 -0 -0 -0 -0 -0 -0 -0 -0 -0 -180 -189 -303 -270 -237 -349 -449 -211 -203 -200 -224 -257 -322 -100 -0 -0 -0 -0 -0 -0 -0 -0 -0 -0 -0 -270 -261 -101 -246 -215 -238 -178 -183
-0 -0 -0 -0 -0 -0 -0 -0 -0 -0 -0 -0 -0 -0 -0 -0 -2 -288 -280 -193 -269 -300 -292 -250 -144 -101 -14 -153 -207 -304 -348 -404 -452 -434 -0 -0 -0 -0 -0 -0 -0 -183 -212 -176 -146 -156 -174 -186 -204
-0 -0 -0 -0 -0 -0 -0 -0 -0 -0 -0 -0 -0 -0 -0 -0 -0 -97 -272 -237 -262 -335 -161 -0 -239 -237 -0 -221 -218 -208 -254 -254 -278 -285 -315 -328 -269 -234 -212 -0 -0 -115 -116 -99 -80 -54 -53 -72 -52
-0 -0 -0 -0 -0 -0 -0 -0 -0 -0 -0 -0 -0 -0 -0 -0 -0 -42 -277 -225 -254 -259 -306 -0 -0 -0 -0 -6 -261 -164 -95 -144 -183 -187 -205 -212 -223 -189 -150 -127 -85 -46 -28 -25 -26 -34 -43 -33 -33
-0 -0 -0 -0 -0 -0 -0 -0 -0 -0 -0 -0 -0 -0 -0 -0 -0 -206 -212 -200 -235 -298 -318 -231 -0 -0 -0 -268 -221 -92 -52 -52 -54 -59 -68 -69 -87 -123 -115 -84 -67 -54 -35 -19 -31 -31 -44 -39 -35
-0 -0 -0 -0 -0 -0 -0 -0 -0 -0 -0 -0 -0 -0 -0 -0 -0 -0 -256 -266 -249 -282 -284 -339 -0 -0 -0 -20 -96 -63 -49 -52 -54 -42 -40 -39 -52 -62 -77 -74 -53 -50 -16 -27 -42 -41 -39 -53 -75
-0 -0 -0 -0 -0 -0 -0 -0 -0 -0 -0 -0 -0 -0 -0 -0 -0 -0 -0 -0 -0 -179 -269 -305 -0 -0 -264 -248 -156 -77 -74 -42 -32 -46 -38 -33 -32 -31 -41 -58 -50 -32 -30 -44 -45 -47 -64 -76 -69
-0 -0 -0 -0 -0 -0 -0 -0 -0 -0 -0 -0 -0 -0 -0 -0 -0 -0 -0 -0 -0 -0 -287 -283 -264 -235 -236 -160 -102 -63 -50 -34 -27 -37 -30 -28 -42 -40 -81 -76 -59 -72 -84 -57 -39 -61 -88 -55 -60
-0 -0 -0 -0 -7 -0 -17 -0 -0 -0 -0 -0 -0 -0 -0 -0 -0 -0 -0 -150 -176 -195 -183 -175 -135 -84 -89 -104 -152 -49 -38 -29 -49 -74 -82 -53 -92 -79 -65 -52 -72 -133 -197 -129 -63 -131 -138 -119 -48
-0 -0 -0 -0 -0 -5 -0 -10 -0 -0 -0 -0 -0 -0 -0 -0 -0 -0 -118 -116 -153 -196 -261 -315 -310 -261 -246 -234 -190 -135 -81 -92 -253 -204 -135 -110 -144 -173 -154 -148 -154 -153 -173 -86 -101 -78 -68 -88 -61
-0 -0 -0 -0 -0 -0 -0 -6 -0 -0 -0 -0 -0 -0 -0 -0 -6 -117 -130 -160 -198 -267 -336 -327 -352 -381 -395 -403 -384 -266 -211 -267 -263 -119 -214 -218 -167 -174 -197 -235 -0 -145 -87 -71 -59 -48 -37 -45 -71
-0 -0 -0 -0 -0 -0 -0 -0 -0 -0 -0 -0 -0 -0 -0 -0 -121 -161 -185 -196 -0 -68 -0 -0 -0 -0 -0 -0 -0 -0 -0 -0 -0 -0 -0 -0 -0 -0 -87 -175 -143 -102 -83 -84 -85 -97 -73 -98 -87
-0 -6 -0 -0 -0 -0 -0 -0 -0 -0 -0 -0 -0 -0 -0 -0 -0 -0 -0 -0 -0 -0 -0 -0 -0 -0 -0 -0 -0 -0 -0 -0 -0 -0 -0 -0 -0 -0 -0 -0 -0 -0 -17 -109 -106 -86 -87 -70 -60
-0 -0 -0 -6 -52 -15 -21 -40 -0 -6 -0 -0 -0 -0 -0 -178 -203 -0 -0 -0 -0 -0 -0 -0 -0 -0 -0 -0 -0 -0 -0 -0 -0 -0 -0 -0 -0 -0 -0 -0 -0 -0 -0 -0 -0 -93 -67 -63 -55
-0 -0 -30 -19 -0 -0 -34 -16 -0 -15 -178 -0 -0 -107 -199 -133 -0 -0 -0 -0 -0 -0 -0 -0 -0 -0 -0 -0 -0 -0 -0 -0 -0 -0 -0 -0 -0 -0 -0 -0 -0 -0 -0 -0 -0 -0 -0 -112 -155
-0 -0 -0 -0 -0 -0 -0 -0 -189 -191 -307 -0 -0 -71 -0 -0 -0 -0 -0 -0 -0 -0 -0 -0 -0 -0 -0 -0 -0 -0 -0 -0 -0 -0 -0 -0 -0 -0 -0 -0 -0 -0 -0 -0 -0 -0 -0 -0 -0
-0 -8 -1 -20 -20 -0 -62 -0 -254 -9 -226 -0 -0 -0 -0 -0 -0 -0 -0 -0 -0 -0 -0 -0 -0 -0 -0 -0 -0 -0 -0 -0 -0 -0 -0 -0 -0 -0 -0 -0 -0 -0 -0 -0 -0 -0 -0 -0 -0
Wind_Speed
27 26 24 20 22 20 21 16 19 20 19 13 9 16 29 21 15 13 5 23 22 26 29 29 27 26 24 25 25 25 25 25 24 24 24 24 24 24 23 24 23 23 22 22 22 22 22 22 22
25 24 20 20 25 27 23 18 20 20 7 7 4 18 10 24 9 3 14 17 23 25 27 27 26 24 24 25 25 24 24 24 23 23 23 23 23 22 21 21 21 21 20 20 20 20 20 20 20
25 22 22 23 27 32 22 18 20 22 1 11 10 17 18 18 6 15 11 18 16 23 23 25 24 25 23 23 23 22 23 23 23 22 22 22 22 21 19 19 19 19 18 19 19 19 19 18 18
22 20 22 29 36 32 25 26 24 23 15 11 12 13 19 16 3 4 18 21 21 23 20 22 22 22 21 21 21 21 21 20 20 21 21 20 19 18 18 18 18 17 17 17 17 17 17 17 16
21 21 30 31 37 31 29 25 26 26 17 9 5 17 20 18 7 10 17 17 20 20 18 15 15 15 17 18 18 18 19 20 19 19 18 18 18 17 17 16 16 15 15 15 15 15 15 15 15
26 23 32 38 37 30 29 27 29 27 25 18 15 11 11 9 4 4 7 7 11 16 15 14 13 13 14 16 17 15 16 17 15 15 15 15 15 15 14 14 14 14 13 13 13 13 13 13 13
30 29 35 34 36 31 26 21 20 21 16 21 9 11 12 4 5 5 6 4 5 9 11 10 11 11 12 14 14 16 15 13 12 12 12 13 13 13 12 12 11 11 11 11 10 11 11 11 11
27 30 35 35 34 32 26 23 21 19 19 17 11 14 9 6 4 1 1 1 3 4 4 2 3 5 9 10 11 12 12 12 11 10 10 11 10 10 10 9 9 9 9 8 8 9 9 10 10
25 37 42 38 32 32 30 29 24 12 14 14 17 12 7 1 4 1 3 2 3 6 7 6 2 2 2 4 7 9 9 9 8 8 8 8 8 8 8 7 7 6 6 6 6 7 7 8 9
30 41 42 34 31 29 30 23 22 17 16 16 11 10 9 6 0 3 6 7 10 12 7 5 3 1 2 2 3 4 5 5 5 5 6 6 6 6 6 6 5 4 4 4 4 5 6 7 7
31 42 36 34 29 28 27 25 21 15 15 14 13 12 12 4 4 7 5 9 14 16 15 14 7 5 4 4 1 2 3 3 3 4 4 4 5 5 5 5 4 3 2 4 4 5 5 5 7
36 33 34 31 29 31 28 25 22 18 13 11 12 12 13 14 15 13 16 10 11 13 13 16 20 8 7 6 2 0 1 1 2 2 2 3 4 4 5 4 4 3 3 4 5 6 6 5 7
40 36 35 32 32 31 31 28 23 20 12 9 11 10 13 19 20 17 17 13 13 14 13 16 19 23 15 11 7 4 5 5 2 3 2 3 3 3 4 4 5 4 5 4 6 7 6 8 6
29 39 41 34 33 32 32 32 29 26 20 18 16 12 12 13 15 18 19 15 16 16 16 17 20 23 23 21 12 11 11 7 5 6 4 4 4 4 5 5 7 5 5 6 7 7 8 8 8
40 38 38 40 35 34 32 38 40 29 26 24 23 23 14 15 13 16 9 8 7 6 2 17 24 19 25 26 12 8 16 14 12 7 5 5 5 6 6 6 8 7 7 7 9 10 11 11 11
36 34 43 47 31 33 30 51 35 28 27 29 28 27 26 14 20 15 8 6 4 2 2 7 19 14 19 34 28 16 11 13 12 9 8 7 8 7 7 8 10 10 9 10 11 12 11 9 12
33 43 45 46 32 29 32 39 36 36 33 34 31 31 30 24 22 14 4 3 4 4 3 5 10 18 16 14 13 23 16 11 14 13 12 11 11 10 9 10 10 10 11 12 12 12 11 13 16
38 41 38 43 33 30 33 35 32 30 31 37 37 33 34 29 21 12 5 6 5 6 5 5 8 11 11 17 18 15 27 20 13 14 15 14 14 12 11 13 12 13 13 13 14 15 15 16 17
31 35 39 36 34 33 34 36 35 36 35 37 38 37 32 31 23 12 8 6 5 7 8 7 7 8 8 13 15 15 17 17 17 18 17 16 14 12 12 12 12 13 16 16 16 18 19 21 25
37 37 39 36 34 32 35 39 33 34 39 39 40 37 34 30 19 14 8 6 4 1 5 5 7 10 15 17 12 17 20 20 20 19 19 19 16 14 13 12 12 14 15 16 14 17 16 23 20
36 38 36 33 34 34 34 41 38 36 38 36 37 37 35 33 31 20 14 9 4 5 4 4 5 10 14 15 18 19 22 23 23 23 23 21 18 16 15 13 14 16 16 13 14 16 19 21 24
38 31 33 33 30 39 29 47 39 37 41 37 34 31 30 30 28 20 15 12 9 5 7 9 10 11 15 18 16 16 17 20 22 22 23 22 17 15 15 15 16 20 20 21 18 19 23 23 24
31 29 31 32 34 33 34 39 36 34 40 40 37 31 27 22 17 14 13 12 11 12 12 14 15 17 16 16 15 15 17 19 20 21 22 22 22 21 20 20 22 27 25 21 18 21 21 19 19
28 28 26 29 32 38 34 34 40 34 33 36 35 31 25 18 13 9 7 8 10 11 14 16 17 18 18 17 18 17 18 19 21 23 22 23 24 26 26 26 27 29 27 26 23 21 19 19 23
25 25 29 30 30 36 35 32 37 28 32 32 29 27 22 13 10 6 5 6 8 11 14 15 15 16 18 19 20 20 19 20 22 22 23 25 26 27 29 27 29 27 25 24 23 20 21 22 23
19 21 26 31 31 30 25 31 36 35 37 25 21 19 12 12 10 5 2 3 8 10 12 13 14 16 18 19 19 20 21 21 22 23 24 26 26 26 27 27 27 27 27 27 25 26 24 23 23
10 18 21 23 21 24 25 24 28 26 28 18 14 12 9 11 9 6 4 4 6 10 12 14 15 17 18 19 20 22 23 24 25 26 26 27 29 30 32 31 31 31 30 31 30 30 31 29 28
29 24 22 22 26 30 25 28 32 30 30 17 12 12 10 9 7 5 4 5 8 11 13 14 15 16 17 19 21 23 25 27 28 30 31 33 33 34 35 35 35 35 35 35 35 36 35 36 36
26 26 24 24 24 28 25 26 27 26 28 19 17 14 11 7 6 4 4 8 9 11 12 12 14 15 17 19 22 23 26 28 31 33 35 37 39 39 39 38 37 37 37 37 39 40 39 41 42
30 37 27 23 24 30 30 31 27 27 24 12 16 10 7 6 6 3 5 7 8 10 12 14 16 15 17 18 22 24 27 30 32 36 37 38 40 40 39 39 39 39 38 38 39 41 41 42 43
Wind_Direction
270 272 272 269 250 248 246 261 253 277 263 292 98 96 163 188 243 252 59 119 116 123 129 127 119 114 110 113 112 109 106 100 95 94 94 94 96 94 92 91 89 85 79 79 78 80 79 80 78
275 273 271 262 245 237 242 257 261 280 326 6 4 269 127 220 164 39 91 113 124 125 129 128 123 117 114 116 115 112 110 105 100 98 100 99 100 99 95 91 88 83 81 80 78 79 79 79 76
273 268 259 251 243 233 241 261 271 286 334 66 323 255 259 272 44 120 105 120 122 127 128 129 126 125 121 119 117 114 114 111 108 104 104 106 106 102 96 91 88 86 85 82 78 79 77 73 69
265 263 258 245 237 236 249 259 270 279 281 296 303 267 267 262 9 327 124 128 129 131 129 128 127 125 122 122 120 118 115 112 107 105 106 108 108 103 98 96 92 91 89 83 78 76 74 69 65
259 258 245 244 238 240 249 265 274 271 271 323 2 286 264 270 325 99 124 127 131 130 129 124 122 118 120 120 119 119 117 117 111 106 104 107 109 108 105 100 96 91 87 81 78 74 71 67 63
248 252 242 238 237 244 246 266 272 265 263 301 307 295 280 309 331 93 117 137 128 129 127 123 120 117 116 120 121 116 115 114 107 103 99 101 107 107 106 104 98 93 88 82 75 71 64 61 57
243 245 242 241 238 246 245 264 285 284 294 293 304 284 284 314 269 113 111 168 154 136 129 119 114 112 113 119 119 121 116 109 103 97 94 97 101 107 105 104 96 90 83 76 73 60 55 53 49
247 247 242 241 238 242 251 266 272 284 297 299 297 276 265 276 252 204 109 237 218 233 243 253 100 102 106 111 116 116 113 113 108 99 94 93 96 101 100 99 95 85 76 72 65 52 48 43 39
246 240 237 237 240 241 258 265 260 289 315 319 299 282 276 129 110 153 288 291 273 265 256 268 288 344 9 94 110 113 112 110 103 97 93 90 88 88 90 95 90 83 74 64 57 47 37 31 28
240 238 238 241 245 251 258 261 258 264 295 304 298 298 277 267 62 311 275 279 286 276 255 239 243 233 109 62 85 87 84 82 83 81 82 77 78 78 74 78 88 85 65 49 36 25 21 18 19
242 239 242 243 249 250 261 256 255 256 277 293 289 279 271 247 278 310 283 306 285 277 275 264 268 273 277 295 73 82 76 85 78 82 68 54 47 45 46 39 40 46 43 18 10 4 6 7 4
241 245 244 244 250 252 256 258 254 255 262 297 303 281 280 265 270 274 271 298 302 306 284 280 268 273 275 286 267 305 354 345 339 5 35 12 7 17 20 20 24 18 11 6 1 351 352 353 355
241 244 244 245 253 257 253 252 250 247 261 283 303 315 285 281 285 287 277 278 288 307 309 294 282 270 278 283 290 291 290 293 306 335 336 340 338 339 345 344 343 343 344 339 343 350 351 352 352
247 243 243 247 251 255 251 250 251 246 263 269 283 297 303 304 303 295 288 272 290 307 289 284 287 282 277 274 287 296 300 302 305 317 315 316 323 315 315 326 331 311 315 324 326 324 331 331 339
241 245 247 242 247 253 253 250 245 251 260 265 272 283 302 314 315 312 293 271 298 314 286 290 264 286 275 271 283 278 291 299 302 306 306 303 312 321 317 309 317 308 303 305 319 323 325 326 330
237 244 239 235 247 254 249 243 250 254 256 262 270 276 283 316 312 319 287 289 278 246 195 158 205 216 280 217 271 282 282 288 296 295 296 287 294 304 311 311 311 315 311 310 314 312 315 319 324
236 235 237 238 247 252 248 250 253 253 259 262 269 273 275 293 317 332 320 256 259 283 251 223 200 210 217 233 257 274 282 280 287 290 293 290 289 288 295 303 307 313 318 317 316 316 313 319 318
232 235 240 238 243 248 250 254 258 258 260 264 269 272 272 281 302 315 324 282 251 255 241 221 199 215 256 281 284 277 273 283 288 294 295 295 293 287 286 299 304 309 312 311 308 312 314 314 310
244 242 242 245 244 250 253 255 257 259 264 265 268 271 271 273 288 298 297 304 292 285 274 254 238 229 261 302 289 272 276 281 287 292 296 297 296 295 297 290 298 309 317 309 303 305 303 306 303
241 244 245 248 247 251 257 258 257 261 263 269 268 269 268 269 275 279 294 299 300 293 289 271 257 275 286 289 278 290 287 287 289 297 299 300 295 295 295 297 294 309 313 311 303 299 299 307 303
242 242 245 251 248 255 261 260 257 260 263 269 270 273 270 268 265 266 273 282 321 2 48 10 326 302 305 298 292 290 296 294 298 302 302 299 291 296 302 302 302 308 313 303 298 298 303 301 301
242 244 251 252 249 249 256 257 258 261 259 264 266 271 273 272 266 256 259 273 279 326 10 17 359 341 327 314 301 303 298 300 309 308 310 310 310 299 295 294 299 310 309 303 299 294 302 298 296
247 247 253 253 254 257 259 259 264 259 261 263 263 269 269 265 261 251 260 267 288 299 316 336 340 336 338 337 332 323 318 321 323 320 320 316 315 312 306 304 302 308 308 301 301 297 299 294 291
245 248 257 263 254 251 256 255 261 258 261 268 265 266 264 260 249 246 255 278 297 317 320 327 335 341 342 341 341 339 335 329 325 325 323 322 323 319 311 307 305 305 305 304 301 301 296 290 297
244 245 246 249 248 254 255 258 262 267 264 267 269 263 255 239 231 222 245 289 313 324 337 340 341 339 342 343 344 342 343 342 338 334 329 327 325 325 323 317 314 311 310 309 306 303 300 299 297
247 246 244 247 255 254 265 256 257 269 268 273 269 255 240 217 215 204 199 317 327 332 335 344 346 344 343 344 342 342 342 342 341 338 334 332 330 330 330 329 326 321 316 314 309 308 309 307 305
256 243 254 256 264 263 262 269 273 293 284 263 251 232 213 190 204 217 250 317 327 329 330 327 329 331 331 334 335 335 336 335 333 333 332 331 328 326 324 324 322 321 320 316 315 312 308 308 305
197 238 242 253 256 257 269 271 270 285 286 266 198 181 177 191 207 227 262 302 313 319 323 329 328 329 331 333 334 333 331 330 329 327 325 324 324 322 320 319 318 316 314 312 311 309 309 307 304
235 237 249 253 260 254 270 273 252 262 270 267 227 175 177 190 180 192 266 301 314 322 331 331 332 334 334 337 337 335 331 330 328 325 322 319 318 318 316 316 315 315 314 312 310 307 306 304 303
240 230 246 250 248 235 225 233 253 259 268 259 224 207 200 172 166 220 282 311 326 321 319 323 327 334 334 339 336 333 333 331 328 326 323 321 319 318 317 316 314 313 313 312 309 307 306 305 303